| time (UTC) | temp F | wind direction | speed MPH | gust MPH | rain 1hr in | rain 24hr in | rain mn in | humidity % | barometer mb |
| 20260906030014 | 63 | 334 | 0.0 | 0.0 | 0.00 | 0.00 | 0.00 | 57 | 1011.8 |
| 20260906024534 | 64 | 334 | 0.0 | 0.0 | 0.00 | 0.00 | 0.00 | 55 | 1011.8 |
| 20260906023013 | 65 | 335 | 0.0 | 0.0 | 0.00 | 0.00 | 0.00 | 53 | 1011.8 |
| 20260906021513 | 66 | 334 | 0.0 | 0.0 | 0.00 | 0.00 | 0.00 | 52 | 1011.8 |
| 20260906020011 | 67 | 334 | 0.0 | 2.0 | 0.00 | 0.00 | 0.00 | 53 | 1011.8 |
| 20260906014517 | 68 | 335 | 0.0 | 2.0 | 0.00 | 0.00 | 0.00 | 50 | 1011.7 |
| 20260906013010 | 69 | 344 | 0.0 | 1.0 | 0.00 | 0.00 | 0.00 | 50 | 1011.8 |
| 20260906011510 | 70 | 346 | 0.0 | 2.0 | 0.00 | 0.00 | 0.00 | 47 | 1011.7 |
| 20260906010020 | 72 | 12 | 0.0 | 3.0 | 0.00 | 0.00 | 0.00 | 45 | 1011.7 |
| 20260906004508 | 72 | 339 | 0.0 | 2.0 | 0.00 | 0.00 | 0.00 | 46 | 1011.6 |
| 20260906003007 | 72 | 50 | 0.0 | 2.0 | 0.00 | 0.00 | 0.00 | 45 | 1011.8 |
| 20260906001507 | 72 | 352 | 0.0 | 2.0 | 0.00 | 0.00 | 0.00 | 45 | 1011.7 |
| 20260906000011 | 73 | 290 | 0.0 | 2.0 | 0.00 | 0.00 | 0.00 | 44 | 1011.7 |
| 20260905234507 | 73 | 24 | 1.0 | 5.0 | 0.00 | 0.00 | 0.00 | 44 | 1011.8 |
| 20260905233006 | 73 | 22 | 0.0 | 2.0 | 0.00 | 0.00 | 0.00 | 44 | 1011.8 |
| 20260905231505 | 74 | 45 | 0.0 | 4.0 | 0.00 | 0.00 | 0.00 | 42 | 1011.8 |
| 20260905230009 | 75 | 295 | 1.0 | 3.0 | 0.00 | 0.00 | 0.00 | 40 | 1011.9 |
| 20260905224513 | 77 | 170 | 1.0 | 4.0 | 0.00 | 0.00 | 0.00 | 38 | 1012.0 |
| 20260905223003 | 76 | 138 | 0.0 | 4.0 | 0.00 | 0.00 | 0.00 | 38 | 1012.1 |
| 20260905221505 | 76 | 356 | 1.0 | 4.0 | 0.00 | 0.00 | 0.00 | 37 | 1012.2 |
| 20260905214600 | 78 | 201 | 2.0 | 5.0 | 0.00 | 0.00 | 0.00 | 37 | 1012.2 |
| 20260905213102 | 78 | 199 | 1.0 | 4.0 | 0.00 | 0.00 | 0.00 | 36 | 1012.2 |
| 20260905211609 | 77 | 5 | 0.0 | 3.0 | 0.00 | 0.00 | 0.00 | 40 | 1012.3 |
| 20260905204605 | 75 | 22 | 0.0 | 4.0 | 0.00 | 0.00 | 0.00 | 38 | 1012.5 |
| 20260905203113 | 78 | 193 | 0.0 | 4.0 | 0.00 | 0.00 | 0.00 | 37 | 1012.5 |
| 20260905201602 | 78 | 190 | 0.0 | 3.0 | 0.00 | 0.00 | 0.00 | 40 | 1012.4 |
| 20260905194605 | 79 | 190 | 0.0 | 2.0 | 0.00 | 0.00 | 0.00 | 39 | 1012.9 |
| 20260905193059 | 78 | 165 | 0.0 | 3.0 | 0.00 | 0.00 | 0.00 | 38 | 1012.9 |
| 20260905191552 | 78 | 156 | 0.0 | 3.0 | 0.00 | 0.00 | 0.00 | 39 | 1013.1 |
| 20260905184551 | 76 | 185 | 0.0 | 3.0 | 0.00 | 0.00 | 0.00 | 41 | 1013.2 |
| 20260905183046 | 74 | 181 | 0.0 | 3.0 | 0.00 | 0.00 | 0.00 | 44 | 1013.3 |
| 20260905181545 | 72 | 176 | 0.0 | 2.0 | 0.00 | 0.00 | 0.00 | 45 | 1013.3 |
| 20260905174543 | 72 | 177 | 0.0 | 3.0 | 0.00 | 0.01 | 0.00 | 45 | 1013.1 |
| 20260905173056 | 72 | 150 | 0.0 | 3.0 | 0.00 | 0.01 | 0.00 | 44 | 1013.1 |
| 20260905171540 | 72 | 177 | 0.0 | 2.0 | 0.00 | 0.01 | 0.00 | 46 | 1013.1 |
| 20260905164535 | 71 | 156 | 0.0 | 3.0 | 0.00 | 0.02 | 0.00 | 48 | 1013.1 |
| 20260905163032 | 71 | 167 | 0.0 | 1.0 | 0.00 | 0.02 | 0.00 | 50 | 1013.2 |
| 20260905161528 | 67 | 153 | 0.0 | 2.0 | 0.00 | 0.02 | 0.00 | 54 | 1013.2 |
| 20260905154525 | 66 | 152 | 0.0 | 0.0 | 0.00 | 0.02 | 0.00 | 59 | 1013.1 |
| 20260905153022 | 63 | 152 | 0.0 | 0.0 | 0.00 | 0.02 | 0.00 | 65 | 1013.2 |
| 20260905151518 | 57 | 154 | 0.0 | 1.0 | 0.00 | 0.02 | 0.00 | 73 | 1013.1 |
| 20260905144512 | 52 | 152 | 0.0 | 1.0 | 0.00 | 0.02 | 0.00 | 79 | 1013.1 |
| 20260905143010 | 52 | 153 | 0.0 | 1.0 | 0.00 | 0.02 | 0.00 | 79 | 1013.2 |
| 20260905141521 | 51 | 151 | 0.0 | 2.0 | 0.00 | 0.02 | 0.00 | 79 | 1013.0 |
| 20260905134510 | 50 | 150 | 1.0 | 2.0 | 0.00 | 0.02 | 0.00 | 80 | 1012.7 |
| 20260905133008 | 50 | 153 | 1.0 | 2.0 | 0.00 | 0.02 | 0.00 | 79 | 1012.5 |
| 20260905131509 | 50 | 153 | 0.0 | 2.0 | 0.00 | 0.02 | 0.00 | 80 | 1012.6 |
| 20260905124510 | 50 | 150 | 0.0 | 2.0 | 0.00 | 0.02 | 0.00 | 79 | 1012.4 |
| 20260905123005 | 50 | 150 | 0.0 | 3.0 | 0.00 | 0.02 | 0.00 | 78 | 1012.5 |
| 20260905121502 | 50 | 150 | 0.0 | 1.0 | 0.00 | 0.02 | 0.00 | 77 | 1012.5 |
| 20260905114559 | 50 | 150 | 0.0 | 2.0 | 0.00 | 0.02 | 0.00 | 77 | 1012.6 |
| 20260905113058 | 50 | 150 | 0.0 | 2.0 | 0.00 | 0.02 | 0.00 | 77 | 1012.6 |
| 20260905111556 | 50 | 150 | 0.0 | 2.0 | 0.00 | 0.02 | 0.00 | 77 | 1012.7 |
| 20260905104557 | 49 | 152 | 0.0 | 3.0 | 0.00 | 0.02 | 0.00 | 77 | 1012.7 |
| 20260905103055 | 49 | 152 | 0.0 | 2.0 | 0.00 | 0.02 | 0.00 | 77 | 1012.7 |
| 20260905101605 | 49 | 150 | 0.0 | 3.0 | 0.00 | 0.02 | 0.00 | 76 | 1012.8 |
| 20260905094549 | 50 | 150 | 0.0 | 2.0 | 0.00 | 0.02 | 0.00 | 75 | 1012.7 |
| 20260905093048 | 50 | 149 | 0.0 | 2.0 | 0.00 | 0.02 | 0.00 | 75 | 1012.8 |
| 20260905091600 | 51 | 150 | 0.0 | 2.0 | 0.00 | 0.02 | 0.00 | 74 | 1012.6 |
| 20260905084544 | 51 | 150 | 0.0 | 2.0 | 0.00 | 0.02 | 0.00 | 74 | 1012.7 |
| 20260905083043 | 51 | 152 | 0.0 | 3.0 | 0.00 | 0.02 | 0.00 | 74 | 1012.7 |
| 20260905081541 | 52 | 153 | 0.0 | 3.0 | 0.00 | 0.02 | 0.00 | 73 | 1012.7 |
| 20260905074539 | 53 | 162 | 0.0 | 2.0 | 0.00 | 0.02 | 0.00 | 72 | 1012.7 |
| 20260905073036 | 52 | 152 | 0.0 | 2.0 | 0.00 | 0.02 | 0.00 | 73 | 1012.7 |
| 20260905071536 | 52 | 153 | 0.0 | 2.0 | 0.00 | 0.02 | 0.00 | 73 | 1012.6 |
| 20260905064529 | 54 | 153 | 0.0 | 1.0 | 0.00 | 0.02 | 0.02 | 70 | 1012.6 |
| 20260905063028 | 54 | 155 | 0.0 | 1.0 | 0.00 | 0.02 | 0.02 | 69 | 1012.6 |
| 20260905061530 | 54 | 155 | 0.0 | 0.0 | 0.00 | 0.02 | 0.02 | 69 | 1012.6 |
| 20260905054532 | 54 | 155 | 0.0 | 0.0 | 0.00 | 0.02 | 0.02 | 69 | 1012.7 |
| 20260905053025 | 55 | 155 | 0.0 | 0.0 | 0.00 | 0.02 | 0.02 | 67 | 1012.8 |
| 20260905051526 | 56 | 155 | 0.0 | 0.0 | 0.00 | 0.02 | 0.02 | 66 | 1012.8 |
| 20260905044523 | 56 | 155 | 0.0 | 0.0 | 0.00 | 0.02 | 0.02 | 65 | 1012.8 |
| 20260905043023 | 57 | 155 | 0.0 | 0.0 | 0.00 | 0.02 | 0.02 | 64 | 1012.7 |
| 20260905041520 | 57 | 155 | 0.0 | 1.0 | 0.00 | 0.02 | 0.02 | 63 | 1012.5 |
| 20260905034527 | 58 | 128 | 0.0 | 0.0 | 0.00 | 0.02 | 0.02 | 61 | 1012.3 |
| 20260905033017 | 59 | 128 | 0.0 | 0.0 | 0.00 | 0.02 | 0.02 | 60 | 1012.1 |
| 20260905031516 | 59 | 129 | 0.0 | 0.0 | 0.00 | 0.02 | 0.02 | 60 | 1012.0 |